METEOR 2-11 DEB, 40709

Orbit data source: Space-Track

METEOR 2-11 DEB, 40709 is space debris in LEO originally from a launch on Thu, 05 Jul 1984 UTC launched from the Plesetsk Missile And Space Complex (PKMTR). Debris objects in space refer to the collection of defunct objects orbiting the Earth. Examples of debris include non-operational satellites, rocket bodies, and fragments generated from explosions, collisions, or faulty payload assembly.

Loading next visibility...
Identifier
40709, 1984-072L
Orbit
LEO
Country
Flag of CISCIS
Related business
Manufacturer
Unknown
Mission
Spacecraft
Bus & Motor
Unknown
Mass
Unknown
Launch date (UTC)
1984-07-05 (42 years ago)
Launch vehicle
Unknown
Launch site
Plesetsk Missile And Space Complex (PKMTR)
Object type
Payload
Rocket body
Debris
Shape & HBR
Unknown shape, 0.1 m
Radar Cross Section
Small (<0.1 m²)

Expand to show TLE details & history
Last TLE update: 2 weeks ago

TLE from 2 weeks ago
0 METEOR 2-11 DEB
1 40709U 84072L   26177.20756010  .00002258  00000-0  14852-2 0  9994
2 40709  82.5105 351.1351 0012188 187.8021 172.2961 14.01476668845142
Epoch: 2026-06-26T04:58Z
TLE epoch observation values (Epoch: 2026-06-26T04:58:53.192Z)
Latitude
-0.00005°
Longitude
2.07408°
Altitude
900.39 km
Speed
7.397 km/s
True Right ascension
23h 24m 32s
True Declination
0° 00' 00"
Sunlit
Object was in daylight at epoch
Visualization orbit readout
Latitude
Unknown
Longitude
Unknown
Altitude
Unknown
Speed
Unknown
Apparent Right ascension
Unknown
Apparent Declination
Unknown
Sunlit
N/A
Visualization observer readout
Local Sidereal Time
03:41:58
Azimuth
Unknown
Elevation
Unknown
Doppler factor
Unknown
Orbital elements
Apogee altitude
894.669 km
Perigee altitude
876.962 km
Semi-major axis
7,263.953 km
Eccentricity
0.00122
Inclination
82.5105°
RAAN
351.1351°
Arg. of periapsis
187.8021°
True anomaly
172.31479°
Mean anomaly
172.2961°
Eccentric anomaly
172.30545°
Mean motion
3.50577 °/min
Orbital period
102.69 mins
BSTAR
0.0014852
Loading maneuver chart data...
Computing Atmospheric mass density...
Loading historical data...
Loading historical data...
Loading historical data...
Loading historical data...
Loading historical data...
Loading historical data...
Loading historical data...

Documentation

Showing up to 5 results
|